When you browse on this site, cookies collect data to enhance your experience and personalize the content and advertising you see.
Visit our Privacy Policy to learn more. By continuing to use the site, you agree to this use of cookies and data.
  • en France
  • Liste des pays
  • À 7 jours
  • Température de l'eau
  • Carte météo
  • Widgets météo
  • user-avatar
    Se connecter

    Météo par heure à Quito

    Ce jour, 4 Avril, Samedi

    Heure Température Précipitation Vent Pression Humidité
    00:00 +18°C° 0.3 mm 1 m/s 622 mmHg 96%
    01:00 +18°C° 0.3 mm 1 m/s 622 mmHg 96%
    02:00 +18°C° 0.5 mm 1 m/s 622 mmHg 97%
    03:00 +18°C° 0.5 mm 1 m/s 621 mmHg 97%
    04:00 +16°C° 0.5 mm 1 m/s 621 mmHg 97%
    05:00 +18°C° 0.2 mm 1 m/s 621 mmHg 97%
    06:00 +18°C° 0.2 mm 1 m/s 622 mmHg 97%
    07:00 +17°C° 0.2 mm 2 m/s 623 mmHg 97%
    08:00 +18°C° 0 mm 2 m/s 623 mmHg 94%
    09:00 +19°C° 0 mm 2 m/s 623 mmHg 92%
    10:00 +20°C° 0 mm 3 m/s 623 mmHg 89%
    11:00 +21°C° 0.4 mm 3 m/s 623 mmHg 85%
    12:00 +22°C° 0.4 mm 3 m/s 623 mmHg 81%
    13:00 +24°C° 0.4 mm 3 m/s 623 mmHg 77%
    14:00 +24°C° 0.4 mm 2 m/s 622 mmHg 77%
    15:00 +24°C° 0.4 mm 2 m/s 621 mmHg 78%
    16:00 +23°C° 0.4 mm 2 m/s 621 mmHg 79%
    17:00 +21°C° 0.5 mm 2 m/s 621 mmHg 84%
    18:00 +21°C° 0.5 mm 1 m/s 621 mmHg 89%
    19:00 +20°C° 0.5 mm 1 m/s 621 mmHg 95%
    20:00 +19°C° 0.3 mm 1 m/s 622 mmHg 95%
    21:00 +19°C° 0.3 mm 1 m/s 622 mmHg 95%
    22:00 +19°C° 0.3 mm 1 m/s 622 mmHg 95%
    23:00 +18°C° 0.2 mm 1 m/s 622 mmHg 95%

    Demain, 5 Avril, Dimanche

    Heure Température Précipitation Vent Pression Humidité
    00:00 +18°C° 0.2 mm 1 m/s 622 mmHg 95%
    01:00 +18°C° 0.2 mm 1 m/s 622 mmHg 95%
    02:00 +18°C° 0 mm 1 m/s 621 mmHg 96%
    03:00 +16°C° 0 mm 1 m/s 621 mmHg 96%
    04:00 +16°C° 0 mm 1 m/s 621 mmHg 97%
    05:00 +16°C° 0.3 mm 1 m/s 621 mmHg 97%
    06:00 +18°C° 0.3 mm 1 m/s 622 mmHg 96%
    07:00 +18°C° 0.3 mm 1 m/s 623 mmHg 96%
    08:00 +19°C° 0.1 mm 1 m/s 623 mmHg 93%
    09:00 +20°C° 0.1 mm 1 m/s 624 mmHg 89%
    10:00 +22°C° 0.1 mm 1 m/s 624 mmHg 86%
    11:00 +23°C° 1.5 mm 1 m/s 624 mmHg 84%
    12:00 +24°C° 1.5 mm 1 m/s 624 mmHg 82%
    13:00 +25°C° 1.5 mm 1 m/s 624 mmHg 80%
    14:00 +24°C° 2.6 mm 1 m/s 623 mmHg 83%
    15:00 +23°C° 2.6 mm 1 m/s 622 mmHg 87%
    16:00 +21°C° 2.6 mm 1 m/s 621 mmHg 91%
    17:00 +21°C° 0.9 mm 1 m/s 621 mmHg 92%
    18:00 +20°C° 0.9 mm 1 m/s 621 mmHg 93%
    19:00 +17°C° 0.9 mm 0 m/s 621 mmHg 94%
    20:00 +19°C° 0.3 mm 1 m/s 622 mmHg 94%
    21:00 +19°C° 0.3 mm 1 m/s 622 mmHg 94%
    22:00 +19°C° 0.3 mm 1 m/s 623 mmHg 94%
    23:00 +18°C° 1 mm 1 m/s 622 mmHg 95%

    Après-demain, 6 Avril, Lundi

    Heure Température Précipitation Vent Pression Humidité
    00:00 +18°C° 1 mm 1 m/s 622 mmHg 96%
    01:00 +18°C° 1 mm 1 m/s 622 mmHg 97%
    02:00 +16°C° 0.3 mm 1 m/s 621 mmHg 97%
    03:00 +16°C° 0.3 mm 1 m/s 621 mmHg 97%
    04:00 +16°C° 0.3 mm 1 m/s 621 mmHg 98%
    05:00 +16°C° 0.1 mm 1 m/s 621 mmHg 97%
    06:00 +16°C° 0.1 mm 1 m/s 622 mmHg 97%
    07:00 +18°C° 0.1 mm 1 m/s 623 mmHg 97%
    08:00 +19°C° 0.1 mm 1 m/s 623 mmHg 92%
    09:00 +21°C° 0.1 mm 1 m/s 624 mmHg 88%
    10:00 +21°C° 0.1 mm 2 m/s 624 mmHg 83%
    11:00 +24°C° 0.3 mm 1 m/s 624 mmHg 79%
    12:00 +25°C° 0.3 mm 1 m/s 624 mmHg 75%
    13:00 +26°C° 0.3 mm 1 m/s 623 mmHg 71%
    14:00 +25°C° 0.8 mm 1 m/s 623 mmHg 73%
    15:00 +25°C° 0.8 mm 1 m/s 622 mmHg 76%
    16:00 +24°C° 0.8 mm 1 m/s 621 mmHg 78%
    17:00 +22°C° 1.1 mm 1 m/s 621 mmHg 83%
    18:00 +21°C° 1.1 mm 1 m/s 621 mmHg 87%
    19:00 +19°C° 1.1 mm 1 m/s 621 mmHg 92%
    20:00 +19°C° 0.3 mm 1 m/s 622 mmHg 93%
    21:00 +18°C° 0.3 mm 1 m/s 622 mmHg 93%
    22:00 +18°C° 0.3 mm 1 m/s 622 mmHg 94%
    23:00 +18°C° 0.1 mm 1 m/s 622 mmHg 94%

    7 Avril, Mardi

    Heure Température Précipitation Vent Pression Humidité
    00:00 +16°C° 0.1 mm 1 m/s 622 mmHg 94%
    01:00 +16°C° 0.1 mm 1 m/s 622 mmHg 95%
    02:00 +16°C° 0 mm 1 m/s 621 mmHg 95%
    03:00 +16°C° 0 mm 1 m/s 621 mmHg 96%
    04:00 +15°C° 0 mm 1 m/s 621 mmHg 97%
    05:00 +16°C° 0 mm 1 m/s 621 mmHg 96%
    06:00 +16°C° 0 mm 1 m/s 622 mmHg 95%
    07:00 +18°C° 0 mm 1 m/s 622 mmHg 94%
    08:00 +20°C° 0 mm 1 m/s 623 mmHg 86%
    09:00 +22°C° 0 mm 1 m/s 624 mmHg 78%
    10:00 +24°C° 0 mm 1 m/s 625 mmHg 70%
    11:00 +26°C° 0.1 mm 1 m/s 624 mmHg 65%
    12:00 +27°C° 0.1 mm 1 m/s 624 mmHg 60%
    13:00 +28°C° 0.1 mm 1 m/s 623 mmHg 55%
    14:00 +27°C° 0.5 mm 1 m/s 622 mmHg 61%
    15:00 +26°C° 0.5 mm 1 m/s 622 mmHg 66%
    16:00 +25°C° 0.5 mm 1 m/s 621 mmHg 71%
    17:00 +23°C° 0.1 mm 1 m/s 621 mmHg 76%
    18:00 +21°C° 0.1 mm 1 m/s 621 mmHg 80%
    19:00 +19°C° 0.1 mm 1 m/s 621 mmHg 85%
    20:00 +19°C° 0 mm 1 m/s 621 mmHg 86%
    21:00 +18°C° 0 mm 1 m/s 621 mmHg 87%
    22:00 +18°C° 0 mm 1 m/s 622 mmHg 89%
    23:00 +15°C° 0 mm 0 m/s 622 mmHg 90%

    8 Avril, Mercredi

    Heure Température Précipitation Vent Pression Humidité
    00:00 +15°C° 0 mm 0 m/s 621 mmHg 91%
    01:00 +15°C° 0 mm 0 m/s 621 mmHg 92%
    02:00 +15°C° 0 mm 0 m/s 621 mmHg 93%
    03:00 +14°C° 0 mm 0 m/s 621 mmHg 93%
    04:00 +14°C° 0 mm 0 m/s 621 mmHg 94%
    05:00 +15°C° 0 mm 0 m/s 621 mmHg 92%
    06:00 +15°C° 0 mm 0 m/s 622 mmHg 91%
    07:00 +16°C° 0 mm 0 m/s 623 mmHg 90%
    08:00 +18°C° 0 mm 0 m/s 623 mmHg 82%
    09:00 +23°C° 0 mm 1 m/s 624 mmHg 74%
    10:00 +25°C° 0 mm 1 m/s 625 mmHg 66%
    11:00 +26°C° 0 mm 1 m/s 624 mmHg 58%
    12:00 +27°C° 0 mm 1 m/s 624 mmHg 51%
    13:00 +28°C° 0 mm 2 m/s 624 mmHg 43%
    14:00 +27°C° 0 mm 2 m/s 623 mmHg 47%
    15:00 +27°C° 0 mm 2 m/s 623 mmHg 50%
    16:00 +26°C° 0 mm 1 m/s 622 mmHg 54%
    17:00 +24°C° 0 mm 1 m/s 622 mmHg 59%
    18:00 +21°C° 0 mm 1 m/s 621 mmHg 64%
    19:00 +19°C° 0 mm 1 m/s 621 mmHg 69%
    20:00 +18°C° 0 mm 1 m/s 621 mmHg 68%
    21:00 +18°C° 0 mm 1 m/s 622 mmHg 67%
    22:00 +16°C° 0 mm 1 m/s 622 mmHg 66%
    23:00 +16°C° 0 mm 1 m/s 622 mmHg 64%

    9 Avril, Jeudi

    Heure Température Précipitation Vent Pression Humidité
    00:00 +15°C° 0 mm 1 m/s 621 mmHg 63%
    01:00 +15°C° 0 mm 1 m/s 621 mmHg 62%
    02:00 +14°C° 0 mm 1 m/s 621 mmHg 68%
    03:00 +14°C° 0 mm 1 m/s 621 mmHg 74%
    04:00 +14°C° 0 mm 1 m/s 621 mmHg 79%
    05:00 +15°C° 0 mm 1 m/s 622 mmHg 82%
    06:00 +16°C° 0 mm 1 m/s 622 mmHg 84%
    07:00 +18°C° 0 mm 1 m/s 623 mmHg 86%
    08:00 +20°C° 0 mm 1 m/s 624 mmHg 78%
    09:00 +21°C° 0 mm 2 m/s 625 mmHg 71%
    10:00 +24°C° 0 mm 3 m/s 625 mmHg 63%
    11:00 +25°C° 0 mm 2 m/s 625 mmHg 58%
    12:00 +26°C° 0 mm 2 m/s 624 mmHg 52%
    13:00 +27°C° 0 mm 1 m/s 624 mmHg 47%
    14:00 +27°C° 0 mm 1 m/s 623 mmHg 50%
    15:00 +26°C° 0 mm 1 m/s 623 mmHg 53%
    16:00 +26°C° 0 mm 1 m/s 622 mmHg 56%
    17:00 +24°C° 0 mm 1 m/s 622 mmHg 60%
    18:00 +22°C° 0 mm 1 m/s 622 mmHg 65%
    19:00 +20°C° 0 mm 1 m/s 622 mmHg 69%
    20:00 +19°C° 0 mm 1 m/s 622 mmHg 75%
    21:00 +18°C° 0 mm 1 m/s 622 mmHg 80%
    22:00 +16°C° 0 mm 1 m/s 622 mmHg 86%
    23:00 +16°C° 0 mm 1 m/s 622 mmHg 90%
    Voir plus